Location: Gad�tanya
(48.0500°N, 20.8500°E)
Time: 11:46:29
(UTC+00:00)

Cosmos 1633 - Pass Details

Date: 05 July 2020
Orbit: 463 x 482 km, 82.5° (Epoch: 14 August)

Event Time Altitude Azimuth Distance (km) Brightness Sun altitude
Exits shadow 23:01:08 55° 224° (SW) 587 2.6 -19.1°
Maximum altitude 23:01:45 69° 280° (W) 521 2.6 -19.1°
Drops below altitude 10° 23:05:23 10° 5° (N) 1,665 6.5 -19.1°
Sets 23:07:30 0° 8° (N) 2,547 7.9 -19.0°
